Regional Weather Roundup
Issued by NWS Albany, NY

Home | Current Version | Previous Version | Text Only | Print | Product List | Glossary On
Versions: 1 2 3 4 5 6 7 8 9 10 11 12 13 14 15 16 17 18 19 20 21 22 23 24 25 26 27 28 29 30 31 32 33 34 35 36 37 38 39 40 41 42 43 44 45 46 47 48 49 50
000
ASUS41 KALY 050310
RWRALY

NEW YORK STATE HOURLY WEATHER ROUNDUP
NATIONAL WEATHER SERVICE ALBANY NY
1100 PM EDT MON MAY 04 2015

NOTE: "FAIR" INDICATES FEW OR NO CLOUDS BELOW 12,000 FEET WITH NO
SIGNIFICANT WEATHER AND/OR NO OBSTRUCTIONS TO VISIBILITY.

NYZ032-033-038>043-046>054-057>066-NYZ062>081-050400-
EAST


CITY           SKY/WX    TMP DP  RH WIND       PRES   REMARKS
ALBANY         CLOUDY    73  44  35 W10       30.08R
GLENS FALLS    CLOUDY    74  47  38 W10       30.04S
POUGHKEEPSIE   MOCLDY    77  42  28 SW9       30.09S
NEWBURGH       CLEAR     73  45  35 SW12      30.13R
MONTGOMERY     PTCLDY    72  45  37 SW10      30.11S
WHITE PLAINS   CLEAR     68  43  40 S5        30.15S
ISLIP          CLEAR     64  45  49 SW17      30.16F
NEW YORK CITY  PTCLDY    73  41  31 SW14G24   30.15S
CENTRAL PARK   CLEAR     73  41  31 VRB7      30.18S
$$

NYZ005>009-017-018-044>046-055-056-050400-
CENTRAL


CITY           SKY/WX    TMP DP  RH WIND       PRES   REMARKS
FULTON         CLOUDY    62  53  72 NW14      30.14R
SYRACUSE       CLOUDY    64  54  69 W6        30.13R
ROME           LGT RAIN  62  53  72 W7        30.14R
ELMIRA         CLOUDY    70  54  56 W5        30.15R
BINGHAMTON     CLOUDY    67  48  50 N7        30.16R
MONTICELLO     CLOUDY    70  45  40 SW9       30.15S
$$

NYZ026>034-041>043-050400-
NORTH


CITY           SKY/WX    TMP DP  RH WIND       PRES   REMARKS
WATERTOWN      CLOUDY    55  51  86 SW8       30.12R
FORT DRUM      NOT AVBL
MASSENA        CLOUDY    60  57  89 SW7       30.06R
SARANAC LAKE   LGT RAIN  57  55  93 SW13      30.06S
PLATTSBURGH    LGT RAIN  67  53  61 W10G18    30.01F
$$

NYZ001>004-010>016-019>021-050400-
WEST


CITY           SKY/WX    TMP DP  RH WIND       PRES   REMARKS
NIAGARA FALLS  MOCLDY    53  49  86 S3        30.16R
BUFFALO        MOCLDY    55  51  86 SW12      30.17S
DUNKIRK        MOCLDY    62  55  77 SW14      30.18S
JAMESTOWN      CLOUDY    57  54  88 CALM      30.22S
WELLSVILLE     CLOUDY    61  54  77 W7        30.22S
ROCHESTER      CLOUDY    64  54  69 W9        30.16R
PENN YAN       CLOUDY    68  53  58 W8        30.15R
$$

             KEY
       WCI = WIND CHILL INDEX
       VSB = VISIBILITY
       HX  = HEAT INDEX
$$


USA.gov is the U.S. government's official web portal to all federal, state and local government web resources and services.